Powrót do katalogu

COSMOS 945

AktywnyMilitariaLEO
NORAD 10291·PAYLOAD·🇷🇺 Russia

Wystrzelony Aug 24, 1977 z Plesetsk Cosmodrome

Loading…

Następne Przeloty (najbliższe 24 godziny)

TLE

ŚwieżeSource: Space-Track

Epoka: Sep 14, 2026, 14:48 UTC

1 10291U 77079G   26257.61705420  .00000001  00000-0  11647-3 0  9993
2 10291  74.0274 325.8794 0017504 125.8471  42.8982 12.47250468212278

Śledź COSMOS 945 w czasie rzeczywistym z AllMySat

Download on the App Store